owner,sensor,date,latitude,longitude,vertical_datum,wind_speed,wind_to_direction,wind_speed_of_gust,qcFlag 
COMPS,ioos:station:USF.COMPS:BGC:1,2014-06-01T00:00:00Z,26.4040,-81.8810,10.0,2.05,63.68,2.84,'1111122,1111122,1111122' 
COMPS,ioos:station:USF.COMPS:BGC:1,2014-06-01T00:06:00Z,26.4040,-81.8810,10.0,2.14,62.91,2.74,'1111122,1111122,1111122' 
COMPS,ioos:station:USF.COMPS:BGC:1,2014-06-01T00:12:00Z,26.4040,-81.8810,10.0,1.85,72.36,2.35,'1111122,1111122,1111122' 
COMPS,ioos:station:USF.COMPS:BGC:1,2014-06-01T00:18:00Z,26.4040,-81.8810,10.0,1.88,65.86,2.54,'1111122,1111122,1111122' 
COMPS,ioos:station:USF.COMPS:BGC:1,2014-06-01T00:24:00Z,26.4040,-81.8810,10.0,2.08,59.14,3.03,'1111122,1111122,1111122' 
COMPS,ioos:station:USF.COMPS:BGC:1,2014-06-01T00:30:00Z,26.4040,-81.8810,10.0,2.24,61.59,3.03,'1111122,1111122,1111122' 
COMPS,ioos:station:USF.COMPS:BGC:1,2014-06-01T00:36:00Z,26.4040,-81.8810,10.0,1.87,56.8,3.13,'1111122,1111122,1111122' 
COMPS,ioos:station:USF.COMPS:BGC:1,2014-06-01T00:42:00Z,26.4040,-81.8810,10.0,1.61,51.35,2.25,'1111122,1111122,1111122' 
COMPS,ioos:station:USF.COMPS:BGC:1,2014-06-01T00:48:00Z,26.4040,-81.8810,10.0,2.26,35.0,2.84,'1111122,1111122,1111122' 
COMPS,ioos:station:USF.COMPS:BGC:1,2014-06-01T00:54:00Z,26.4040,-81.8810,10.0,2.83,27.78,3.23,'1111122,1111122,1111122' 
COMPS,ioos:station:USF.COMPS:BGC:1,2014-06-01T01:00:00Z,26.4040,-81.8810,10.0,2.89,25.09,3.43,'1111122,1111122,1111122' 
COMPS,ioos:station:USF.COMPS:BGC:1,2014-06-01T01:06:00Z,26.4040,-81.8810,10.0,3.06,29.6,3.72,'1111122,1111122,1111122' 
COMPS,ioos:station:USF.COMPS:BGC:1,2014-06-01T01:12:00Z,26.4040,-81.8810,10.0,2.48,35.37,3.03,'1111122,1111122,1111122' 
COMPS,ioos:station:USF.COMPS:BGC:1,2014-06-01T01:18:00Z,26.4040,-81.8810,10.0,2.47,35.04,2.94,'1111122,1111122,1111122' 
COMPS,ioos:station:USF.COMPS:BGC:1,2014-06-01T01:24:00Z,26.4040,-81.8810,10.0,2.98,29.9,3.52,'1111122,1111122,1111122' 
COMPS,ioos:station:USF.COMPS:BGC:1,2014-06-01T01:30:00Z,26.4040,-81.8810,10.0,3.16,28.17,3.62,'1111122,1111122,1111122' 
COMPS,ioos:station:USF.COMPS:BGC:1,2014-06-01T01:36:00Z,26.4040,-81.8810,10.0,2.68,36.39,3.23,'1111122,1111122,1111122' 
COMPS,ioos:station:USF.COMPS:BGC:1,2014-06-01T01:42:00Z,26.4040,-81.8810,10.0,2.56,29.45,3.03,'1111122,1111122,1111122' 
COMPS,ioos:station:USF.COMPS:BGC:1,2014-06-01T01:48:00Z,26.4040,-81.8810,10.0,2.8,38.49,4.01,'1111122,1111122,1111122' 
COMPS,ioos:station:USF.COMPS:BGC:1,2014-06-01T01:54:00Z,26.4040,-81.8810,10.0,3.54,44.13,4.5,'1111122,1111122,1111122' 
COMPS,ioos:station:USF.COMPS:BGC:1,2014-06-01T02:00:00Z,26.4040,-81.8810,10.0,3.4,35.41,3.92,'1111122,1111122,1111122' 
COMPS,ioos:station:USF.COMPS:BGC:1,2014-06-01T02:06:00Z,26.4040,-81.8810,10.0,3.11,32.03,3.62,'1111122,1111122,1111122' 
COMPS,ioos:station:USF.COMPS:BGC:1,2014-06-01T02:12:00Z,26.4040,-81.8810,10.0,3.08,33.9,3.72,'1111122,1111122,1111122' 
COMPS,ioos:station:USF.COMPS:BGC:1,2014-06-01T02:18:00Z,26.4040,-81.8810,10.0,3.13,34.75,4.21,'1111122,1111122,1111122' 
COMPS,ioos:station:USF.COMPS:BGC:1,2014-06-01T02:24:00Z,26.4040,-81.8810,10.0,2.82,37.67,3.72,'1111122,1111122,1111122' 
COMPS,ioos:station:USF.COMPS:BGC:1,2014-06-01T02:30:00Z,26.4040,-81.8810,10.0,2.47,48.45,3.23,'1111122,1111122,1111122' 
COMPS,ioos:station:USF.COMPS:BGC:1,2014-06-01T02:36:00Z,26.4040,-81.8810,10.0,1.75,51.7,2.54,'1111122,1111122,1111122' 
COMPS,ioos:station:USF.COMPS:BGC:1,2014-06-01T02:42:00Z,26.4040,-81.8810,10.0,1.49,63.32,2.05,'1111122,1111122,1111122' 
COMPS,ioos:station:USF.COMPS:BGC:1,2014-06-01T02:48:00Z,26.4040,-81.8810,10.0,1.34,71.08,1.96,'1111122,1111122,1111122' 
COMPS,ioos:station:USF.COMPS:BGC:1,2014-06-01T02:54:00Z,26.4040,-81.8810,10.0,1.56,53.56,2.54,'1111122,1111122,1111122' 
COMPS,ioos:station:USF.COMPS:BGC:1,2014-06-01T03:00:00Z,26.4040,-81.8810,10.0,2.07,34.79,2.45,'1111122,1111122,1111122' 
COMPS,ioos:station:USF.COMPS:BGC:1,2014-06-01T03:06:00Z,26.4040,-81.8810,10.0,1.97,22.78,2.64,'1111122,1111122,1111122' 
COMPS,ioos:station:USF.COMPS:BGC:1,2014-06-01T03:12:00Z,26.4040,-81.8810,10.0,1.95,34.45,2.45,'1111122,1111122,1111122' 
COMPS,ioos:station:USF.COMPS:BGC:1,2014-06-01T03:18:00Z,26.4040,-81.8810,10.0,2.63,38.76,3.13,'1111122,1111122,1111122' 
COMPS,ioos:station:USF.COMPS:BGC:1,2014-06-01T03:24:00Z,26.4040,-81.8810,10.0,2.07,37.16,2.74,'1111122,1111122,1111122' 
COMPS,ioos:station:USF.COMPS:BGC:1,2014-06-01T03:30:00Z,26.4040,-81.8810,10.0,1.56,54.63,2.25,'1111122,1111122,1111122' 
COMPS,ioos:station:USF.COMPS:BGC:1,2014-06-01T03:36:00Z,26.4040,-81.8810,10.0,1.84,61.47,3.03,'1111122,1111122,1111122' 
COMPS,ioos:station:USF.COMPS:BGC:1,2014-06-01T03:42:00Z,26.4040,-81.8810,10.0,1.72,64.17,3.03,'1111122,1111122,1111122' 
COMPS,ioos:station:USF.COMPS:BGC:1,2014-06-01T03:48:00Z,26.4040,-81.8810,10.0,1.93,79.24,2.54,'1111122,1111122,1111122' 
COMPS,ioos:station:USF.COMPS:BGC:1,2014-06-01T03:54:00Z,26.4040,-81.8810,10.0,2.29,73.98,3.43,'1111122,1111122,1111122' 
COMPS,ioos:station:USF.COMPS:BGC:1,2014-06-01T04:00:00Z,26.4040,-81.8810,10.0,1.9,79.28,2.84,'1111122,1111122,1111122' 
COMPS,ioos:station:USF.COMPS:BGC:1,2014-06-01T04:06:00Z,26.4040,-81.8810,10.0,2.12,77.75,2.84,'1111122,1111122,1111122' 
COMPS,ioos:station:USF.COMPS:BGC:1,2014-06-01T04:12:00Z,26.4040,-81.8810,10.0,2.07,67.93,3.52,'1111122,1111122,1111122' 
COMPS,ioos:station:USF.COMPS:BGC:1,2014-06-01T04:18:00Z,26.4040,-81.8810,10.0,2.12,61.52,3.82,'1111122,1111122,1111122' 
COMPS,ioos:station:USF.COMPS:BGC:1,2014-06-01T04:24:00Z,26.4040,-81.8810,10.0,2.72,54.81,3.62,'1111122,1111122,1111122' 
COMPS,ioos:station:USF.COMPS:BGC:1,2014-06-01T04:30:00Z,26.4040,-81.8810,10.0,2.92,48.95,3.62,'1111122,1111122,1111122' 
COMPS,ioos:station:USF.COMPS:BGC:1,2014-06-01T04:36:00Z,26.4040,-81.8810,10.0,2.61,52.24,3.72,'1111122,1111122,1111122' 
COMPS,ioos:station:USF.COMPS:BGC:1,2014-06-01T04:42:00Z,26.4040,-81.8810,10.0,3.0,42.53,3.92,'1111122,1111122,1111122' 
COMPS,ioos:station:USF.COMPS:BGC:1,2014-06-01T04:48:00Z,26.4040,-81.8810,10.0,2.64,47.92,4.11,'1111122,1111122,1111122' 
COMPS,ioos:station:USF.COMPS:BGC:1,2014-06-01T04:54:00Z,26.4040,-81.8810,10.0,2.79,45.16,3.72,'1111122,1111122,1111122' 
COMPS,ioos:station:USF.COMPS:BGC:1,2014-06-01T05:00:00Z,26.4040,-81.8810,10.0,2.9,42.61,4.11,'1111122,1111122,1111122' 
COMPS,ioos:station:USF.COMPS:BGC:1,2014-06-01T05:06:00Z,26.4040,-81.8810,10.0,2.77,32.43,3.43,'1111122,1111122,1111122' 
COMPS,ioos:station:USF.COMPS:BGC:1,2014-06-01T05:12:00Z,26.4040,-81.8810,10.0,1.88,36.54,2.45,'1111122,1111122,1111122' 
COMPS,ioos:station:USF.COMPS:BGC:1,2014-06-01T05:18:00Z,26.4040,-81.8810,10.0,2.26,53.74,3.03,'1111122,1111122,1111122' 
COMPS,ioos:station:USF.COMPS:BGC:1,2014-06-01T05:24:00Z,26.4040,-81.8810,10.0,1.85,63.29,3.43,'1111122,1111122,1111122' 
COMPS,ioos:station:USF.COMPS:BGC:1,2014-06-01T05:30:00Z,26.4040,-81.8810,10.0,1.82,57.7,2.54,'1111122,1111122,1111122' 
COMPS,ioos:station:USF.COMPS:BGC:1,2014-06-01T05:36:00Z,26.4040,-81.8810,10.0,1.99,42.23,3.33,'1111122,1111122,1111122' 
COMPS,ioos:station:USF.COMPS:BGC:1,2014-06-01T05:42:00Z,26.4040,-81.8810,10.0,1.5,51.01,2.15,'1111122,1111122,1111122' 
COMPS,ioos:station:USF.COMPS:BGC:1,2014-06-01T05:48:00Z,26.4040,-81.8810,10.0,1.59,61.77,2.25,'1111122,1111122,1111122' 
COMPS,ioos:station:USF.COMPS:BGC:1,2014-06-01T05:54:00Z,26.4040,-81.8810,10.0,1.59,60.79,2.64,'1111122,1111122,1111122' 
COMPS,ioos:station:USF.COMPS:BGC:1,2014-06-01T06:00:00Z,26.4040,-81.8810,10.0,1.71,57.93,2.64,'1111122,1111122,1111122' 
COMPS,ioos:station:USF.COMPS:BGC:1,2014-06-01T06:06:00Z,26.4040,-81.8810,10.0,1.65,71.03,2.25,'1111122,1111122,1111122' 
COMPS,ioos:station:USF.COMPS:BGC:1,2014-06-01T06:12:00Z,26.4040,-81.8810,10.0,1.26,73.92,2.05,'1111122,1111122,1111122' 
COMPS,ioos:station:USF.COMPS:BGC:1,2014-06-01T06:18:00Z,26.4040,-81.8810,10.0,1.72,66.47,2.64,'1111122,1111122,1111122' 
COMPS,ioos:station:USF.COMPS:BGC:1,2014-06-01T06:24:00Z,26.4040,-81.8810,10.0,1.94,64.07,2.74,'1111122,1111122,1111122' 
COMPS,ioos:station:USF.COMPS:BGC:1,2014-06-01T06:30:00Z,26.4040,-81.8810,10.0,2.31,53.69,3.23,'1111122,1111122,1111122' 
COMPS,ioos:station:USF.COMPS:BGC:1,2014-06-01T06:36:00Z,26.4040,-81.8810,10.0,2.19,52.05,3.13,'1111122,1111122,1111122' 
COMPS,ioos:station:USF.COMPS:BGC:1,2014-06-01T06:42:00Z,26.4040,-81.8810,10.0,2.38,61.75,3.43,'1111122,1111122,1111122' 
COMPS,ioos:station:USF.COMPS:BGC:1,2014-06-01T06:48:00Z,26.4040,-81.8810,10.0,2.35,48.29,3.03,'1111122,1111122,1111122' 
COMPS,ioos:station:USF.COMPS:BGC:1,2014-06-01T06:54:00Z,26.4040,-81.8810,10.0,3.07,26.88,3.92,'1111122,1111122,1111122' 
COMPS,ioos:station:USF.COMPS:BGC:1,2014-06-01T07:00:00Z,26.4040,-81.8810,10.0,2.5,39.85,3.13,'1111122,1111122,1111122' 
COMPS,ioos:station:USF.COMPS:BGC:1,2014-06-01T07:06:00Z,26.4040,-81.8810,10.0,2.2,45.47,2.84,'1111122,1111122,1111122' 
COMPS,ioos:station:USF.COMPS:BGC:1,2014-06-01T07:12:00Z,26.4040,-81.8810,10.0,1.99,48.42,2.74,'1111122,1111122,1111122' 
COMPS,ioos:station:USF.COMPS:BGC:1,2014-06-01T07:18:00Z,26.4040,-81.8810,10.0,2.47,51.22,3.43,'1111122,1111122,1111122' 
COMPS,ioos:station:USF.COMPS:BGC:1,2014-06-01T07:24:00Z,26.4040,-81.8810,10.0,1.9,60.06,3.52,'1111122,1111122,1111122' 
COMPS,ioos:station:USF.COMPS:BGC:1,2014-06-01T07:30:00Z,26.4040,-81.8810,10.0,1.74,55.5,2.45,'1111122,1111122,1111122' 
COMPS,ioos:station:USF.COMPS:BGC:1,2014-06-01T07:36:00Z,26.4040,-81.8810,10.0,1.95,57.48,2.94,'1111122,1111122,1111122' 
COMPS,ioos:station:USF.COMPS:BGC:1,2014-06-01T07:42:00Z,26.4040,-81.8810,10.0,2.35,56.76,3.23,'1111122,1111122,1111122' 
COMPS,ioos:station:USF.COMPS:BGC:1,2014-06-01T07:48:00Z,26.4040,-81.8810,10.0,2.16,62.89,3.03,'1111122,1111122,1111122' 
COMPS,ioos:station:USF.COMPS:BGC:1,2014-06-01T07:54:00Z,26.4040,-81.8810,10.0,2.36,61.33,4.6,'1111122,1111122,1111122' 
COMPS,ioos:station:USF.COMPS:BGC:1,2014-06-01T08:00:00Z,26.4040,-81.8810,10.0,2.75,55.54,3.72,'1111122,1111122,1111122' 
COMPS,ioos:station:USF.COMPS:BGC:1,2014-06-01T08:06:00Z,26.4040,-81.8810,10.0,2.44,54.33,3.52,'1111122,1111122,1111122' 
COMPS,ioos:station:USF.COMPS:BGC:1,2014-06-01T08:12:00Z,26.4040,-81.8810,10.0,2.66,59.37,3.52,'1111122,1111122,1111122' 
COMPS,ioos:station:USF.COMPS:BGC:1,2014-06-01T08:18:00Z,26.4040,-81.8810,10.0,2.49,60.61,3.33,'1111122,1111122,1111122' 
COMPS,ioos:station:USF.COMPS:BGC:1,2014-06-01T08:24:00Z,26.4040,-81.8810,10.0,2.57,64.64,3.72,'1111122,1111122,1111122' 
COMPS,ioos:station:USF.COMPS:BGC:1,2014-06-01T08:30:00Z,26.4040,-81.8810,10.0,2.76,58.31,4.11,'1111122,1111122,1111122' 
COMPS,ioos:station:USF.COMPS:BGC:1,2014-06-01T08:36:00Z,26.4040,-81.8810,10.0,3.49,55.76,4.41,'1111122,1111122,1111122' 
COMPS,ioos:station:USF.COMPS:BGC:1,2014-06-01T08:42:00Z,26.4040,-81.8810,10.0,3.31,55.45,4.8,'1111122,1111122,1111122' 
COMPS,ioos:station:USF.COMPS:BGC:1,2014-06-01T08:48:00Z,26.4040,-81.8810,10.0,4.47,61.41,5.58,'1111122,1111122,1111122' 
COMPS,ioos:station:USF.COMPS:BGC:1,2014-06-01T08:54:00Z,26.4040,-81.8810,10.0,3.78,60.37,5.68,'1111122,1111122,1111122' 
COMPS,ioos:station:USF.COMPS:BGC:1,2014-06-01T09:00:00Z,26.4040,-81.8810,10.0,3.11,62.9,4.6,'1111122,1111122,1111122' 
COMPS,ioos:station:USF.COMPS:BGC:1,2014-06-01T09:06:00Z,26.4040,-81.8810,10.0,2.46,70.5,3.72,'1111122,1111122,1111122' 
COMPS,ioos:station:USF.COMPS:BGC:1,2014-06-01T09:12:00Z,26.4040,-81.8810,10.0,3.15,57.26,4.7,'1111122,1111122,1111122' 
COMPS,ioos:station:USF.COMPS:BGC:1,2014-06-01T09:18:00Z,26.4040,-81.8810,10.0,4.06,57.46,5.29,'1111122,1111122,1111122' 
COMPS,ioos:station:USF.COMPS:BGC:1,2014-06-01T09:24:00Z,26.4040,-81.8810,10.0,3.24,54.86,4.6,'1111122,1111122,1111122' 
COMPS,ioos:station:USF.COMPS:BGC:1,2014-06-01T09:30:00Z,26.4040,-81.8810,10.0,2.88,63.55,4.11,'1111122,1111122,1111122' 
COMPS,ioos:station:USF.COMPS:BGC:1,2014-06-01T09:36:00Z,26.4040,-81.8810,10.0,2.22,65.1,4.01,'1111122,1111122,1111122' 
COMPS,ioos:station:USF.COMPS:BGC:1,2014-06-01T09:42:00Z,26.4040,-81.8810,10.0,2.9,55.07,4.21,'1111122,1111122,1111122' 
COMPS,ioos:station:USF.COMPS:BGC:1,2014-06-01T09:48:00Z,26.4040,-81.8810,10.0,3.49,57.15,4.41,'1111122,1111122,1111122' 
COMPS,ioos:station:USF.COMPS:BGC:1,2014-06-01T09:54:00Z,26.4040,-81.8810,10.0,2.87,57.71,3.72,'1111122,1111122,1111122' 
COMPS,ioos:station:USF.COMPS:BGC:1,2014-06-01T10:00:00Z,26.4040,-81.8810,10.0,3.43,55.44,4.5,'1111122,1111122,1111122' 
COMPS,ioos:station:USF.COMPS:BGC:1,2014-06-01T10:06:00Z,26.4040,-81.8810,10.0,2.94,53.67,3.82,'1111122,1111122,1111122' 
COMPS,ioos:station:USF.COMPS:BGC:1,2014-06-01T10:12:00Z,26.4040,-81.8810,10.0,2.66,44.03,3.13,'1111122,1111122,1111122' 
COMPS,ioos:station:USF.COMPS:BGC:1,2014-06-01T10:18:00Z,26.4040,-81.8810,10.0,2.43,54.11,3.82,'1111122,1111122,1111122' 
COMPS,ioos:station:USF.COMPS:BGC:1,2014-06-01T10:24:00Z,26.4040,-81.8810,10.0,2.59,54.04,3.52,'1111122,1111122,1111122' 
COMPS,ioos:station:USF.COMPS:BGC:1,2014-06-01T10:30:00Z,26.4040,-81.8810,10.0,2.65,47.57,3.72,'1111122,1111122,1111122' 
COMPS,ioos:station:USF.COMPS:BGC:1,2014-06-01T10:36:00Z,26.4040,-81.8810,10.0,2.85,54.92,3.82,'1111122,1111122,1111122' 
COMPS,ioos:station:USF.COMPS:BGC:1,2014-06-01T10:42:00Z,26.4040,-81.8810,10.0,3.05,54.35,4.11,'1111122,1111122,1111122' 
COMPS,ioos:station:USF.COMPS:BGC:1,2014-06-01T10:48:00Z,26.4040,-81.8810,10.0,3.29,51.13,4.31,'1111122,1111122,1111122' 
COMPS,ioos:station:USF.COMPS:BGC:1,2014-06-01T10:54:00Z,26.4040,-81.8810,10.0,2.7,56.9,3.82,'1111122,1111122,1111122' 
COMPS,ioos:station:USF.COMPS:BGC:1,2014-06-01T11:00:00Z,26.4040,-81.8810,10.0,3.06,50.29,4.11,'1111122,1111122,1111122' 
COMPS,ioos:station:USF.COMPS:BGC:1,2014-06-01T11:06:00Z,26.4040,-81.8810,10.0,3.72,43.64,5.09,'1111122,1111122,1111122' 
COMPS,ioos:station:USF.COMPS:BGC:1,2014-06-01T11:12:00Z,26.4040,-81.8810,10.0,3.86,44.83,4.8,'1111122,1111122,1111122' 
COMPS,ioos:station:USF.COMPS:BGC:1,2014-06-01T11:18:00Z,26.4040,-81.8810,10.0,3.73,49.93,4.7,'1111122,1111122,1111122' 
COMPS,ioos:station:USF.COMPS:BGC:1,2014-06-01T11:24:00Z,26.4040,-81.8810,10.0,3.56,52.89,5.09,'1111122,1111122,1111122' 
COMPS,ioos:station:USF.COMPS:BGC:1,2014-06-01T11:30:00Z,26.4040,-81.8810,10.0,3.71,54.93,5.09,'1111122,1111122,1111122' 
COMPS,ioos:station:USF.COMPS:BGC:1,2014-06-01T11:36:00Z,26.4040,-81.8810,10.0,3.9,61.39,5.48,'1111122,1111122,1111122' 
COMPS,ioos:station:USF.COMPS:BGC:1,2014-06-01T11:42:00Z,26.4040,-81.8810,10.0,4.13,57.82,5.39,'1111122,1111122,1111122' 
COMPS,ioos:station:USF.COMPS:BGC:1,2014-06-01T11:48:00Z,26.4040,-81.8810,10.0,3.87,58.31,6.17,'1111122,1111122,1111122' 
COMPS,ioos:station:USF.COMPS:BGC:1,2014-06-01T11:54:00Z,26.4040,-81.8810,10.0,2.9,59.05,4.21,'1111122,1111122,1111122' 
COMPS,ioos:station:USF.COMPS:BGC:1,2014-06-01T12:00:00Z,26.4040,-81.8810,10.0,3.18,59.61,4.6,'1111122,1111122,1111122' 
COMPS,ioos:station:USF.COMPS:BGC:1,2014-06-01T12:06:00Z,26.4040,-81.8810,10.0,3.1,60.34,4.5,'1111122,1111122,1111122' 
COMPS,ioos:station:USF.COMPS:BGC:1,2014-06-01T12:12:00Z,26.4040,-81.8810,10.0,3.45,53.29,4.7,'1111122,1111122,1111122' 
COMPS,ioos:station:USF.COMPS:BGC:1,2014-06-01T12:18:00Z,26.4040,-81.8810,10.0,3.46,58.85,5.39,'1111122,1111122,1111122' 
COMPS,ioos:station:USF.COMPS:BGC:1,2014-06-01T12:24:00Z,26.4040,-81.8810,10.0,3.55,63.63,5.19,'1111122,1111122,1111122' 
COMPS,ioos:station:USF.COMPS:BGC:1,2014-06-01T12:30:00Z,26.4040,-81.8810,10.0,3.28,55.51,5.09,'1111122,1111122,1111122' 
COMPS,ioos:station:USF.COMPS:BGC:1,2014-06-01T12:36:00Z,26.4040,-81.8810,10.0,3.54,56.39,4.7,'1111122,1111122,1111122' 
COMPS,ioos:station:USF.COMPS:BGC:1,2014-06-01T12:42:00Z,26.4040,-81.8810,10.0,3.28,72.68,4.8,'1111122,1111122,1111122' 
COMPS,ioos:station:USF.COMPS:BGC:1,2014-06-01T12:48:00Z,26.4040,-81.8810,10.0,3.7,65.25,5.29,'1111122,1111122,1111122' 
COMPS,ioos:station:USF.COMPS:BGC:1,2014-06-01T12:54:00Z,26.4040,-81.8810,10.0,3.52,65.96,4.8,'1111122,1111122,1111122' 
COMPS,ioos:station:USF.COMPS:BGC:1,2014-06-01T13:00:00Z,26.4040,-81.8810,10.0,3.38,70.48,4.21,'1111122,1111122,1111122' 
COMPS,ioos:station:USF.COMPS:BGC:1,2014-06-01T13:06:00Z,26.4040,-81.8810,10.0,3.5,65.22,4.9,'1111122,1111122,1111122' 
COMPS,ioos:station:USF.COMPS:BGC:1,2014-06-01T13:12:00Z,26.4040,-81.8810,10.0,3.14,67.92,4.5,'1111122,1111122,1111122' 
COMPS,ioos:station:USF.COMPS:BGC:1,2014-06-01T13:18:00Z,26.4040,-81.8810,10.0,3.39,74.15,5.48,'1111122,1111122,1111122' 
COMPS,ioos:station:USF.COMPS:BGC:1,2014-06-01T13:24:00Z,26.4040,-81.8810,10.0,2.99,74.78,4.5,'1111122,1111122,1111122' 
COMPS,ioos:station:USF.COMPS:BGC:1,2014-06-01T13:30:00Z,26.4040,-81.8810,10.0,3.64,77.25,4.99,'1111122,1111122,1111122' 
COMPS,ioos:station:USF.COMPS:BGC:1,2014-06-01T13:36:00Z,26.4040,-81.8810,10.0,3.45,69.25,4.7,'1111122,1111122,1111122' 
COMPS,ioos:station:USF.COMPS:BGC:1,2014-06-01T13:42:00Z,26.4040,-81.8810,10.0,3.41,75.76,4.8,'1111122,1111122,1111122' 
COMPS,ioos:station:USF.COMPS:BGC:1,2014-06-01T13:48:00Z,26.4040,-81.8810,10.0,4.04,82.14,5.68,'1111122,1111122,1111122' 
COMPS,ioos:station:USF.COMPS:BGC:1,2014-06-01T13:54:00Z,26.4040,-81.8810,10.0,4.27,72.35,5.58,'1111122,1111122,1111122' 
COMPS,ioos:station:USF.COMPS:BGC:1,2014-06-01T14:00:00Z,26.4040,-81.8810,10.0,4.19,86.29,6.17,'1111122,1111122,1111122' 
COMPS,ioos:station:USF.COMPS:BGC:1,2014-06-01T14:06:00Z,26.4040,-81.8810,10.0,4.17,75.96,5.88,'1111122,1111122,1111122' 
COMPS,ioos:station:USF.COMPS:BGC:1,2014-06-01T14:12:00Z,26.4040,-81.8810,10.0,4.66,78.43,6.37,'1111122,1111122,1111122' 
COMPS,ioos:station:USF.COMPS:BGC:1,2014-06-01T14:18:00Z,26.4040,-81.8810,10.0,4.82,84.54,7.25,'1111122,1111122,1111122' 
COMPS,ioos:station:USF.COMPS:BGC:1,2014-06-01T14:24:00Z,26.4040,-81.8810,10.0,4.48,95.22,6.07,'1111122,1111122,1111122' 
COMPS,ioos:station:USF.COMPS:BGC:1,2014-06-01T14:30:00Z,26.4040,-81.8810,10.0,4.46,90.94,6.56,'1111122,1111122,1111122' 
COMPS,ioos:station:USF.COMPS:BGC:1,2014-06-01T14:36:00Z,26.4040,-81.8810,10.0,3.55,88.34,5.58,'1111122,1111122,1111122' 
COMPS,ioos:station:USF.COMPS:BGC:1,2014-06-01T14:42:00Z,26.4040,-81.8810,10.0,3.85,92.92,5.29,'1111122,1111122,1111122' 
COMPS,ioos:station:USF.COMPS:BGC:1,2014-06-01T14:48:00Z,26.4040,-81.8810,10.0,3.34,89.27,4.7,'1111122,1111122,1111122' 
COMPS,ioos:station:USF.COMPS:BGC:1,2014-06-01T14:54:00Z,26.4040,-81.8810,10.0,4.23,77.24,6.46,'1111122,1111122,1111122' 
COMPS,ioos:station:USF.COMPS:BGC:1,2014-06-01T15:00:00Z,26.4040,-81.8810,10.0,4.09,87.45,5.48,'1111122,1111122,1111122' 
COMPS,ioos:station:USF.COMPS:BGC:1,2014-06-01T15:06:00Z,26.4040,-81.8810,10.0,4.5,87.22,5.68,'1111122,1111122,1111122' 
COMPS,ioos:station:USF.COMPS:BGC:1,2014-06-01T15:12:00Z,26.4040,-81.8810,10.0,4.71,88.05,6.86,'1111122,1111122,1111122' 
COMPS,ioos:station:USF.COMPS:BGC:1,2014-06-01T15:18:00Z,26.4040,-81.8810,10.0,4.75,87.74,7.15,'1111122,1111122,1111122' 
COMPS,ioos:station:USF.COMPS:BGC:1,2014-06-01T15:24:00Z,26.4040,-81.8810,10.0,4.79,82.11,7.15,'1111122,1111122,1111122' 
COMPS,ioos:station:USF.COMPS:BGC:1,2014-06-01T15:30:00Z,26.4040,-81.8810,10.0,4.73,81.46,6.76,'1111122,1111122,1111122' 
COMPS,ioos:station:USF.COMPS:BGC:1,2014-06-01T15:36:00Z,26.4040,-81.8810,10.0,5.11,83.91,6.56,'1111122,1111122,1111122' 
COMPS,ioos:station:USF.COMPS:BGC:1,2014-06-01T15:42:00Z,26.4040,-81.8810,10.0,3.77,73.5,5.09,'1111122,1111122,1111122' 
COMPS,ioos:station:USF.COMPS:BGC:1,2014-06-01T15:48:00Z,26.4040,-81.8810,10.0,4.31,79.01,6.07,'1111122,1111122,1111122' 
COMPS,ioos:station:USF.COMPS:BGC:1,2014-06-01T15:54:00Z,26.4040,-81.8810,10.0,3.76,81.9,5.88,'1111122,1111122,1111122' 
COMPS,ioos:station:USF.COMPS:BGC:1,2014-06-01T16:00:00Z,26.4040,-81.8810,10.0,4.82,80.61,6.56,'1111122,1111122,1111122' 
COMPS,ioos:station:USF.COMPS:BGC:1,2014-06-01T16:06:00Z,26.4040,-81.8810,10.0,4.52,93.88,6.27,'1111122,1111122,1111122' 
COMPS,ioos:station:USF.COMPS:BGC:1,2014-06-01T16:12:00Z,26.4040,-81.8810,10.0,3.54,88.74,5.09,'1111122,1111122,1111122' 
COMPS,ioos:station:USF.COMPS:BGC:1,2014-06-01T16:18:00Z,26.4040,-81.8810,10.0,3.08,72.05,4.41,'1111122,1111122,1111122' 
COMPS,ioos:station:USF.COMPS:BGC:1,2014-06-01T16:24:00Z,26.4040,-81.8810,10.0,3.88,59.91,5.48,'1111122,1111122,1111122' 
COMPS,ioos:station:USF.COMPS:BGC:1,2014-06-01T16:30:00Z,26.4040,-81.8810,10.0,3.87,57.36,5.88,'1111122,1111122,1111122' 
COMPS,ioos:station:USF.COMPS:BGC:1,2014-06-01T16:36:00Z,26.4040,-81.8810,10.0,4.52,86.48,5.88,'1111122,1111122,1111122' 
COMPS,ioos:station:USF.COMPS:BGC:1,2014-06-01T16:42:00Z,26.4040,-81.8810,10.0,4.22,84.53,6.76,'1111122,1111122,1111122' 
COMPS,ioos:station:USF.COMPS:BGC:1,2014-06-01T16:48:00Z,26.4040,-81.8810,10.0,4.7,95.87,7.15,'1111122,1111122,1111122' 
COMPS,ioos:station:USF.COMPS:BGC:1,2014-06-01T16:54:00Z,26.4040,-81.8810,10.0,4.0,80.33,6.86,'1111122,1111122,1111122' 
COMPS,ioos:station:USF.COMPS:BGC:1,2014-06-01T17:00:00Z,26.4040,-81.8810,10.0,2.88,81.2,4.41,'1111122,1111122,1111122' 
COMPS,ioos:station:USF.COMPS:BGC:1,2014-06-01T17:06:00Z,26.4040,-81.8810,10.0,3.35,64.67,4.5,'1111122,1111122,1111122' 
COMPS,ioos:station:USF.COMPS:BGC:1,2014-06-01T17:12:00Z,26.4040,-81.8810,10.0,3.35,66.0,5.48,'1111122,1111122,1111122' 
COMPS,ioos:station:USF.COMPS:BGC:1,2014-06-01T17:18:00Z,26.4040,-81.8810,10.0,3.08,56.0,4.7,'1111122,1111122,1111122' 
COMPS,ioos:station:USF.COMPS:BGC:1,2014-06-01T17:24:00Z,26.4040,-81.8810,10.0,3.22,70.21,5.48,'1111122,1111122,1111122' 
COMPS,ioos:station:USF.COMPS:BGC:1,2014-06-01T17:30:00Z,26.4040,-81.8810,10.0,3.16,81.91,4.9,'1111122,1111122,1111122' 
COMPS,ioos:station:USF.COMPS:BGC:1,2014-06-01T17:36:00Z,26.4040,-81.8810,10.0,2.83,74.3,4.31,'1111122,1111122,1111122' 
COMPS,ioos:station:USF.COMPS:BGC:1,2014-06-01T17:42:00Z,26.4040,-81.8810,10.0,3.64,78.42,5.97,'1111122,1111122,1111122' 
COMPS,ioos:station:USF.COMPS:BGC:1,2014-06-01T17:48:00Z,26.4040,-81.8810,10.0,3.65,75.63,4.8,'1111122,1111122,1111122' 
COMPS,ioos:station:USF.COMPS:BGC:1,2014-06-01T17:54:00Z,26.4040,-81.8810,10.0,3.39,81.92,4.7,'1111122,1111122,1111122' 
COMPS,ioos:station:USF.COMPS:BGC:1,2014-06-01T18:00:00Z,26.4040,-81.8810,10.0,3.65,75.85,5.09,'1111122,1111122,1111122' 
COMPS,ioos:station:USF.COMPS:BGC:1,2014-06-01T18:06:00Z,26.4040,-81.8810,10.0,2.79,70.71,4.5,'1111122,1111122,1111122' 
COMPS,ioos:station:USF.COMPS:BGC:1,2014-06-01T18:12:00Z,26.4040,-81.8810,10.0,3.5,87.97,5.29,'1111122,1111122,1111122' 
COMPS,ioos:station:USF.COMPS:BGC:1,2014-06-01T18:18:00Z,26.4040,-81.8810,10.0,3.34,81.95,4.21,'1111122,1111122,1111122' 
COMPS,ioos:station:USF.COMPS:BGC:1,2014-06-01T18:24:00Z,26.4040,-81.8810,10.0,3.09,73.23,4.9,'1111122,1111122,1111122' 
COMPS,ioos:station:USF.COMPS:BGC:1,2014-06-01T18:30:00Z,26.4040,-81.8810,10.0,3.8,77.32,5.68,'1111122,1111122,1111122' 
COMPS,ioos:station:USF.COMPS:BGC:1,2014-06-01T18:36:00Z,26.4040,-81.8810,10.0,4.47,80.85,6.46,'1111122,1111122,1111122' 
COMPS,ioos:station:USF.COMPS:BGC:1,2014-06-01T18:42:00Z,26.4040,-81.8810,10.0,4.99,75.55,7.54,'1111122,1111122,1111122' 
COMPS,ioos:station:USF.COMPS:BGC:1,2014-06-01T18:48:00Z,26.4040,-81.8810,10.0,5.37,60.81,7.54,'1111122,1111122,1111122' 
COMPS,ioos:station:USF.COMPS:BGC:1,2014-06-01T18:54:00Z,26.4040,-81.8810,10.0,4.07,83.75,6.27,'1111122,1111122,1111122' 
COMPS,ioos:station:USF.COMPS:BGC:1,2014-06-01T19:00:00Z,26.4040,-81.8810,10.0,3.62,91.8,5.19,'1111122,1111122,1111122' 
COMPS,ioos:station:USF.COMPS:BGC:1,2014-06-01T19:06:00Z,26.4040,-81.8810,10.0,4.05,65.9,5.97,'1111122,1111122,1111122' 
COMPS,ioos:station:USF.COMPS:BGC:1,2014-06-01T19:12:00Z,26.4040,-81.8810,10.0,6.08,83.61,13.81,'1111122,1111122,1111122' 
COMPS,ioos:station:USF.COMPS:BGC:1,2014-06-01T19:18:00Z,26.4040,-81.8810,10.0,10.29,101.76,13.81,'1111122,1111122,1111122' 
COMPS,ioos:station:USF.COMPS:BGC:1,2014-06-01T19:24:00Z,26.4040,-81.8810,10.0,8.93,132.94,12.54,'1111122,1111122,1111122' 
COMPS,ioos:station:USF.COMPS:BGC:1,2014-06-01T19:30:00Z,26.4040,-81.8810,10.0,5.72,140.92,7.93,'1111122,1111122,1111122' 
COMPS,ioos:station:USF.COMPS:BGC:1,2014-06-01T19:36:00Z,26.4040,-81.8810,10.0,3.4,128.04,4.99,'1111122,1111122,1111122' 